Location: Unspecified
(0.0000°N, 0.0000°E)
Time: 02:03:11
(UTC+02:00)

Cosmos 1953 Rocket - Visible Passes

Search period start: 29 June 2016 00:00
Search period end: 09 July 2016 00:00
Orbit: 605 x 635 km, 82.5° (Epoch: 28 June)

Date Brightness Start Highest point End Pass type
(mag) Time Alt. Az. Time Alt. Az. Time Alt. Az.
29 Jun 4.2 06:42:06 10° N 06:46:20 57° E 06:50:35 10° SSE visible
30 Jun 3.5 06:59:42 10° NNW 07:03:56 58° W 07:08:11 10° S visible
01 Jul 6.6 05:42:27 10° ENE 05:43:57 12° E 05:45:28 10° ESE visible
01 Jul 4.6 07:18:02 10° NW 07:21:33 24° W 07:25:03 10° SSW visible
02 Jul 5.5 05:57:55 10° NNE 06:01:34 27° E 06:05:12 10° SE visible
02 Jul 5.5 07:38:20 10° W 07:39:09 10° W 07:39:59 10° WSW visible
03 Jul 3.8 06:14:54 10° N 06:19:10 64° E 06:21:24 27° SSE visible
04 Jul 3.6 06:32:35 10° NNW 06:36:46 51° W 06:37:02 50° WSW visible
05 Jul 6.6 05:14:46 10° ENE 05:15:55 12° ENE 05:15:55 12° ENE visible
05 Jul 5.1 06:51:03 10° NW 06:52:59 19° WNW 06:52:59 19° WNW visible
06 Jul 6.0 05:30:38 10° NNE 05:32:05 18° NE 05:32:05 18° NE visible
07 Jul 6.0 05:47:42 10° N 05:48:25 15° N 05:48:25 15° N visible
